Location: Tambov
(52.7163°N, 41.4075°E)
Time: 11:56:21
(UTC+03:00)

Envisat - Visible Passes

Search period start: 06 March 2021 00:00
Search period end: 16 March 2021 00:00
Orbit: 764 x 766 km, 98.1° (Epoch: 05 March)

Date Brightness Start Highest point End Pass type
(mag) Time Alt. Az. Time Alt. Az. Time Alt. Az.
06 Mar 6.1 04:29:07 10° NE 04:31:41 14° E 04:34:15 10° ESE visible
06 Mar 3.2 06:06:26 10° NNE 06:11:34 80° ESE 06:16:39 10° SSW visible
07 Mar 4.4 05:29:46 10° NNE 05:34:36 41° E 05:39:24 10° SSE visible
07 Mar 6.3 18:32:06 10° WSW 18:35:00 15° W 18:37:56 10° NW visible
08 Mar 5.6 04:53:31 10° NE 04:57:26 22° E 05:01:20 10° SE visible
09 Mar 6.3 04:18:39 10° ENE 04:20:04 11° E 04:21:30 10° E visible
09 Mar 3.5 05:55:02 10° NNE 06:00:07 66° ESE 06:05:10 10° S visible
10 Mar 4.8 05:18:28 10° NNE 05:23:06 34° E 05:27:42 10° SSE visible
11 Mar 5.9 04:42:25 10° NE 04:45:52 18° E 04:49:19 10° SE visible
12 Mar 3.9 05:43:38 10° NNE 05:48:39 54° E 05:53:37 10° S visible
12 Mar 6.8 18:47:37 10° W 18:49:13 11° W 18:50:49 10° WNW visible
13 Mar 5.2 05:07:11 10° NNE 05:11:34 28° E 05:15:55 10° SSE visible
14 Mar 6.0 04:31:26 10° NE 04:34:17 15° E 04:37:06 10° ESE visible
15 Mar 4.4 05:32:16 10° NNE 05:37:10 44° E 05:42:01 10° S visible
